Location: Poughquag
(41.6090°N, 73.6820°W)
Time: 12:51:46
(UTC-04:00)

A-11 Canister half - Pass Details

Date: 30 May 2020
Orbit: 1527 x 1682 km, 47.3° (Epoch: 06 July)

Event Time Altitude Azimuth Distance (km) Brightness Sun altitude
Rises 06:44:38 0° 205° (SSW) 4,669 11.1 12.9°
Reaches altitude 10° 06:47:57 10° 197° (SSW) 3,684 10.7 13.5°
Maximum altitude 06:56:10 37° 134° (SE) 2,211 10.4 15.0°
Drops below altitude 10° 07:04:27 10° 71° (ENE) 3,729 13.8 16.5°
Sets 07:07:49 0° 64° (ENE) 4,732 13.2 17.1°
